Weather History for Baltimore, MD

Change the Weather History Date:

Friday, June 1, 2012

  Actual Average Record
Temperature  
Mean Temperature 71 °F 68 °F  
Max Temperature 81 °F 79 °F 98 °F (2011)
Min Temperature 60 °F 57 °F 42 °F (1966)
Degree Days  
Heating Degree Days 0 2  
Month to date heating degree days 0 2  
Since 1 June heating degree days 0 2  
Since 1 July heating degree days 3586 4751  
Cooling Degree Days 6 5  
Month to date cooling degree days 6 5  
Year to date cooling degree days 198 89  
Since 1 June cooling degree days 6 5  
Growing Degree Days 20 (Base 50)    
Moisture  
Dew Point 64 °F    
Average Humidity 76    
Maximum Humidity 90    
Minimum Humidity 62    
Precipitation  
Precipitation 1.55 in 0.12 in 2.14 in (1979)
Month to date precipitation 1.55 0.12  
Year to date precipitation 12.25 17.15  
Snow  
Snow 0.00 in 0.00 in - ()
Month to date snowfall 0.0 0.0  
Since 1 July snowfall 1.8 20.1  
Snow Depth 0.00 in    
Sea Level Pressure  
Sea Level Pressure 29.78 in    
Wind  
Wind Speed 8 mph (SE)    
Max Wind Speed 21 mph    
Max Gust Speed 37 mph    
Visibility 7 miles    
Events Fog , Rain , Thunderstorm , Tornado    
T = Trace of Precipitation, MM = Missing Value Source: NWS Daily Summary

Daily Weather History Graph

Daily Weather History Graph

Search for Another Location

Airport:

Trip Planner

Search our weather history database for the weather conditions in past years. The results will help you decide how hot, cold, wet, or windy it might be!

Date:

Astronomy

Jun. 01, 2012 Rise Set
Actual Time 5:42 AM EDT 8:27 PM EDT
Civil Twilight 5:10 AM EDT 8:59 PM EDT
Nautical Twilight 4:31 AM EDT 9:38 PM EDT
Astronomical Twilight 3:46 AM EDT 10:23 PM EDT
Moon 5:27 PM EDT (6/1) 3:15 AM EDT (6/1)
Length of Visible Light 15h 48m
Length of Day
14h 45m
Waxing Gibbous, 89% of the Moon is Illuminated
Jun 1
Waxing Gibbous
Jun 4
Full
Jun 11
Last Quarter
Jun 19
New
Jun 26
First Quarter

Hourly Weather History & Observations

Time (EDT) Temp. Heat Index Dew Point Humidity Pressure Visibility Wind Dir Wind Speed Gust Speed Precip Events Conditions
12:54 AM 64.9 °F - 54.0 °F 68% 29.90 in 10.0 mi Calm Calm - N/A   Scattered Clouds
1:54 AM 63.0 °F - 55.0 °F 75% 29.91 in 10.0 mi Calm Calm - N/A   Scattered Clouds
2:54 AM 64.0 °F - 55.0 °F 73% 29.89 in 10.0 mi ENE 3.5 mph - N/A   Scattered Clouds
3:54 AM 62.1 °F - 55.9 °F 80% 29.89 in 10.0 mi Calm Calm - N/A   Mostly Cloudy
4:54 AM 64.0 °F - 57.0 °F 78% 29.90 in 10.0 mi Calm Calm - N/A   Mostly Cloudy
5:54 AM 69.1 °F - 61.0 °F 75% 29.89 in 10.0 mi ENE 8.1 mph - N/A   Mostly Cloudy
6:54 AM 71.1 °F - 62.1 °F 73% 29.89 in 10.0 mi ENE 8.1 mph - N/A   Mostly Cloudy
7:54 AM 71.1 °F - 63.0 °F 75% 29.89 in 9.0 mi East 9.2 mph - N/A   Mostly Cloudy
8:54 AM 70.0 °F - 62.1 °F 76% 29.88 in 10.0 mi East 11.5 mph - N/A   Overcast
9:54 AM 71.1 °F - 62.1 °F 73% 29.88 in 10.0 mi East 10.4 mph - N/A   Overcast
10:54 AM 73.9 °F - 64.0 °F 71% 29.87 in 10.0 mi ESE 13.8 mph - N/A   Mostly Cloudy
11:51 AM 75.2 °F - 64.4 °F 69% 29.86 in 10.0 mi ESE 16.1 mph 20.7 mph N/A   Mostly Cloudy
11:54 AM 75.9 °F - 64.0 °F 67% 29.86 in 10.0 mi ESE 13.8 mph - N/A   Mostly Cloudy
12:54 PM 77.0 °F - 66.0 °F 69% 29.83 in 10.0 mi East 15.0 mph - N/A   Overcast
1:54 PM 77.0 °F - 66.2 °F 69% 29.80 in 10.0 mi East 12.7 mph - N/A   Overcast
2:05 PM 78.8 °F - 66.2 °F 65% 29.79 in 10.0 mi East 16.1 mph - N/A   Mostly Cloudy
2:54 PM 80.1 °F 82.3 °F 66.9 °F 64% 29.75 in 10.0 mi ESE 16.1 mph 21.9 mph N/A   Mostly Cloudy
3:54 PM 78.1 °F - 68.0 °F 71% 29.73 in 10.0 mi ESE 5.8 mph - N/A   Overcast
4:25 PM 78.8 °F - 62.6 °F 57% 29.72 in 10.0 mi ESE 12.7 mph 18.4 mph N/A Thunderstorm Thunderstorm
4:54 PM 78.1 °F - 64.9 °F 64% 29.72 in 10.0 mi WSW 8.1 mph 17.3 mph N/A Thunderstorm Thunderstorm
5:15 PM 75.2 °F - 66.2 °F 73% 29.72 in 2.0 mi South 11.5 mph 17.3 mph 0.00 in Rain , Thunderstorm Light Thunderstorms and Rain
5:25 PM 71.6 °F - 69.8 °F 94% 29.73 in 0.5 mi SSE 6.9 mph - 0.14 in Fog , Rain , Thunderstorm Heavy Thunderstorms and Rain
5:38 PM 71.6 °F - 69.8 °F 94% 29.72 in 4.0 mi SW 5.8 mph 16.1 mph 0.32 in Rain , Thunderstorm Light Thunderstorms and Rain
5:50 PM 71.6 °F - 69.8 °F 94% 29.73 in 2.5 mi SSW 9.2 mph - 0.36 in Rain , Thunderstorm Thunderstorms and Rain
5:54 PM 71.6 °F - 69.8 °F 94% 29.73 in 0.5 mi SSW 11.5 mph - N/A Fog , Rain , Thunderstorm Heavy Thunderstorms and Rain
6:06 PM 73.4 °F - 69.8 °F 88% 29.72 in 5.0 mi Variable 5.8 mph - 0.28 in Rain , Thunderstorm Light Thunderstorms and Rain
6:35 PM 69.8 °F - 66.2 °F 88% 29.71 in 10.0 mi Calm Calm - 0.31 in   Overcast
6:54 PM 72.0 °F - 68.0 °F 87% 29.70 in 10.0 mi Calm Calm - 0.31 in Rain , Thunderstorm Light Thunderstorms and Rain
7:24 PM 71.6 °F - 68.0 °F 88% 29.70 in 2.0 mi West 15.0 mph 36.8 mph 0.06 in Rain , Thunderstorm Heavy Thunderstorms and Rain
7:31 PM 71.6 °F - 68.0 °F 88% 29.70 in 3.0 mi SSW 9.2 mph 20.7 mph 0.14 in Rain , Thunderstorm Thunderstorms and Rain
7:35 PM 71.6 °F - 68.0 °F 88% 29.70 in 3.0 mi SSW 8.1 mph 20.7 mph 0.15 in Rain , Thunderstorm , Tornado Funnel Cloud
7:37 PM 71.6 °F - 68.0 °F 88% 29.70 in 3.0 mi SSW 9.2 mph - 0.16 in Rain , Thunderstorm Thunderstorms and Rain
7:54 PM 71.1 °F - 68.0 °F 90% 29.71 in 5.0 mi South 9.2 mph - 0.22 in Rain , Thunderstorm Thunderstorms and Rain
8:38 PM 69.8 °F - 68.0 °F 94% 29.70 in 2.5 mi SE 5.8 mph - 0.19 in Rain Heavy Rain
8:54 PM 70.0 °F - 68.0 °F 93% 29.68 in 5.0 mi SE 9.2 mph 16.1 mph 0.23 in Rain Light Rain
9:54 PM 70.0 °F - 68.0 °F 93% 29.68 in 10.0 mi Calm Calm - 0.01 in   Overcast
10:19 PM 69.8 °F - 66.2 °F 88% 29.69 in 10.0 mi SSE 3.5 mph - N/A   Overcast
10:46 PM 62.6 °F - 59.0 °F 88% 29.74 in 2.0 mi West 8.1 mph 27.6 mph 0.02 in Rain Light Rain
10:54 PM 61.0 °F - 59.0 °F 93% 29.73 in 3.0 mi WNW 6.9 mph - 0.27 in Rain Heavy Rain
11:25 PM 62.6 °F - 60.8 °F 94% 29.73 in 5.0 mi NNW 4.6 mph - 0.09 in Rain Light Rain
11:54 PM 62.1 °F - 59.0 °F 90% 29.71 in 8.0 mi Calm Calm - 0.10 in Rain Light Rain